This is the latest recevied weather packets stored in our database for station/object KN6CRX-10. If no packets are shown the sender has not sent any weather packets the latest 10 day(s).
| Time | Temp. | Humidity | Pressure | Rain* | Wind** | Luminosity | Snow |
|---|---|---|---|---|---|---|---|
| 1788155245 | 56° F | 52% | 765.3 mmHg | 0 in | - | 0 W/m² | - |
| 1788154941 | 56° F | 49% | 765.2 mmHg | 0 in | - | 0 W/m² | - |
| 1788154639 | 56° F | 48% | 765.1 mmHg | 0 in | - | 0 W/m² | - |
| 1788154339 | 56° F | 48% | 765 mmHg | 0 in | - | 0 W/m² | - |
| 1788154038 | 57° F | 48% | 765.1 mmHg | 0 in | - | 0 W/m² | - |
| 1788153737 | 57° F | 48% | 765 mmHg | 0 in | - | 0 W/m² | - |
| 1788153436 | 57° F | 47% | 765 mmHg | 0 in | - | 0 W/m² | - |
| 1788153135 | 57° F | 47% | 765.1 mmHg | 0 in | - | 0 W/m² | - |
| 1788152835 | 57° F | 46% | 765.1 mmHg | 0 in | - | 0 W/m² | - |
| 1788152534 | 57° F | 47% | 764.9 mmHg | 0 in | - | 0 W/m² | - |
| 1788152229 | 57° F | 46% | 764.8 mmHg | 0 in | - | 0 W/m² | - |
| 1788151923 | 57° F | 48% | 765 mmHg | 0 in | - | 0 W/m² | - |
| 1788151618 | 58° F | 47% | 765 mmHg | 0 in | - | 0 W/m² | - |
| 1788151313 | 58° F | 46% | 765.1 mmHg | 0 in | - | 0 W/m² | - |
| 1788151009 | 59° F | 44% | 764.8 mmHg | 0 in | - | 0 W/m² | - |
| 1788150704 | 59° F | 43% | 764.9 mmHg | 0 in | - | 0 W/m² | - |
| 1788150403 | 59° F | 43% | 764.8 mmHg | 0 in | - | 0 W/m² | - |
| 1788150099 | 59° F | 44% | 764.8 mmHg | 0 in | - | 0 W/m² | - |
| 1788149799 | 59° F | 44% | 764.8 mmHg | 0 in | - | 0 W/m² | - |
| 1788149498 | 60° F | 43% | 764.9 mmHg | 0 in | - | 0 W/m² | - |
| 1788149194 | 60° F | 42% | 764.8 mmHg | 0 in | - | 0 W/m² | - |
| 1788148893 | 61° F | 41% | 764.7 mmHg | 0 in | - | 0 W/m² | - |
| 1788148592 | 61° F | 40% | 764.7 mmHg | 0 in | - | 0 W/m² | - |
| 1788148286 | 61° F | 41% | 764.5 mmHg | 0 in | - | 0 W/m² | - |
| 1788147985 | 62° F | 39% | 764.7 mmHg | 0 in | - | 0 W/m² | - |
* Rain latest hour (hover to see other rain measurements)
** Current wind speed in m/s (hover to see current wind gust speed)